.
WxDataArchive / Data Records for 2008-08-24
2008-08-23 August 2008 2008-08-25

Data Records for Sunday, 24 August 2008

Time	Temp	Chill	HIndex	Humid	Dewpt	 Wind 	HiWind	WindDir	Rain 	Barom 
-----	----	-----	------	-----	-----	------	------	-------	-----	----- 
00:00	73.0	73.0	73.0	87	68.9	0	0	---	0.00	29.934 
00:05	73.0	73.0	73.0	87	68.9	0	0	---	0.00	29.930 
00:10	73.0	73.0	73.0	88	69.2	0	0	---	0.00	29.930 
00:15	73.0	73.0	73.0	88	69.2	0	0	---	0.00	29.930 
00:20	72.8	72.8	72.8	88	69.0	0	0	---	0.00	29.928 
00:25	72.8	72.8	72.8	88	69.0	0	0	---	0.00	29.928 
00:30	72.8	72.8	72.8	88	69.0	0	0	---	0.00	29.927 
00:35	72.8	72.8	72.8	88	69.0	0	0	---	0.00	29.924 
00:40	72.7	72.7	72.7	88	68.9	0	0	---	0.00	29.922 
00:45	72.7	72.7	72.7	88	68.9	0	0	---	0.00	29.920 
00:50	72.7	72.7	72.7	88	68.9	0	0	---	0.00	29.920 
00:55	72.7	72.7	72.7	88	68.9	0	0	---	0.00	29.920 
01:00	72.7	72.7	72.7	88	68.9	0	0	---	0.00	29.919 
01:05	72.7	72.7	72.7	88	68.9	0	0	---	0.00	29.918 
01:10	72.7	72.7	72.7	89	69.3	0	0	---	0.00	29.918 
01:15	72.7	72.7	72.7	89	69.3	0	0	---	0.00	29.918 
01:20	72.7	72.7	72.7	89	69.3	0	0	---	0.00	29.917 
01:25	72.7	72.7	72.7	89	69.3	0	0	---	0.00	29.917 
01:30	72.5	72.5	72.5	89	69.1	0	0	---	0.00	29.916 
01:35	72.5	72.5	72.5	89	69.1	0	0	---	0.00	29.914 
01:40	72.5	72.5	72.5	89	69.1	0	0	---	0.00	29.913 
01:45	72.5	72.5	72.5	89	69.1	0	0	---	0.00	29.912 
01:50	72.5	72.5	72.5	89	69.1	0	0	---	0.00	29.912 
01:55	72.3	72.3	72.3	89	68.9	0	0	---	0.00	29.908 
02:00	72.3	72.3	72.3	89	68.9	0	0	---	0.00	29.909 
02:05	72.3	72.3	72.3	89	68.9	0	0	---	0.00	29.909 
02:10	72.3	72.3	72.3	89	68.9	0	0	---	0.00	29.909 
02:15	72.1	72.1	72.1	89	68.7	0	0	---	0.00	29.905 
02:20	72.1	72.1	72.1	90	69.0	0	0	---	0.00	29.904 
02:25	72.1	72.1	72.1	90	69.0	0	0	---	0.00	29.904 
02:30	72.0	72.0	72.0	90	68.9	0	0	---	0.00	29.903 
02:35	72.0	72.0	72.0	90	68.9	0	0	---	0.00	29.903 
02:40	72.0	72.0	72.0	90	68.9	0	0	---	0.00	29.903 
02:45	72.0	72.0	72.0	90	68.9	0	0	---	0.00	29.903 
02:50	72.0	72.0	72.0	91	69.2	0	0	---	0.00	29.904 
02:55	72.0	72.0	72.0	91	69.2	0	0	---	0.00	29.904 
03:00	72.0	72.0	72.0	91	69.2	0	0	---	0.00	29.907 
03:05	71.8	71.8	71.8	91	69.0	0	0	---	0.00	29.907 
03:10	71.8	71.8	71.8	91	69.0	0	0	---	0.00	29.905 
03:15	71.8	71.8	71.8	91	69.0	0	0	---	0.00	29.905 
03:20	71.6	71.6	71.6	92	69.1	0	0	---	0.00	29.905 
03:25	71.6	71.6	71.6	92	69.1	0	0	---	0.00	29.906 
03:30	71.8	71.8	71.8	92	69.3	0	0	---	0.00	29.904 
03:35	72.0	72.0	72.0	92	69.5	0	1	270	0.00	29.907 
03:40	72.1	72.1	72.1	91	69.3	0	1	270	0.00	29.906 
03:45	72.1	72.1	72.1	91	69.3	0	0	---	0.00	29.907 
03:50	72.1	72.1	72.1	90	69.0	0	0	---	0.00	29.907 
03:55	72.1	72.1	72.1	90	69.0	0	0	---	0.00	29.909 
04:00	72.1	72.1	72.1	90	69.0	0	0	---	0.00	29.907 
04:05	72.1	72.1	72.1	90	69.0	0	1	270	0.00	29.910 
04:10	72.0	72.0	72.0	90	68.9	0	0	---	0.00	29.909 
04:15	72.0	72.0	72.0	90	68.9	0	0	---	0.00	29.909 
04:20	71.8	71.8	71.8	90	68.7	0	0	---	0.00	29.908 
04:25	71.8	71.8	71.8	89	68.4	0	1	270	0.00	29.909 
04:30	71.8	71.8	71.8	89	68.4	0	0	---	0.00	29.909 
04:35	71.8	71.8	71.8	89	68.4	0	0	---	0.00	29.907 
04:40	71.8	71.8	71.8	88	68.0	0	0	---	0.00	29.909 
04:45	71.6	71.6	71.6	88	67.8	0	0	---	0.00	29.907 
04:50	71.6	71.6	71.6	88	67.8	0	0	---	0.00	29.909 
04:55	71.6	71.6	71.6	88	67.8	0	0	---	0.00	29.908 
05:00	71.5	71.5	71.5	88	67.7	0	0	---	0.00	29.908 
05:05	71.5	71.5	71.5	88	67.7	0	0	---	0.00	29.909 
05:10	71.5	71.5	71.5	88	67.7	0	0	---	0.00	29.909 
05:15	71.3	71.3	71.3	88	67.6	0	0	---	0.00	29.912 
05:20	71.3	71.3	71.3	88	67.6	0	0	---	0.00	29.915 
05:25	71.3	71.3	71.3	87	67.2	0	0	---	0.00	29.915 
05:30	71.3	71.3	71.3	87	67.2	0	0	---	0.00	29.916 
05:35	71.3	71.3	71.3	86	66.9	0	0	---	0.00	29.915 
05:40	71.3	71.3	71.3	86	66.9	0	0	---	0.00	29.913 
05:45	71.3	71.3	71.3	86	66.9	0	0	---	0.00	29.913 
05:50	71.1	71.1	71.1	86	66.7	0	0	---	0.00	29.912 
05:55	71.1	71.1	71.1	87	67.0	0	0	---	0.00	29.912 
06:00	71.1	71.1	71.1	87	67.0	0	0	---	0.00	29.911 
06:05	71.1	71.1	71.1	86	66.7	0	0	---	0.00	29.916 
06:10	71.1	71.1	71.1	86	66.7	0	0	---	0.00	29.914 
06:15	71.1	71.1	71.1	85	66.4	0	0	---	0.00	29.914 
06:20	71.1	71.1	71.1	85	66.4	0	0	---	0.00	29.915 
06:25	71.1	71.1	71.1	84	66.0	0	0	---	0.00	29.918 
06:30	71.1	71.1	71.1	84	66.0	0	0	---	0.00	29.918 
06:35	71.1	71.1	71.1	84	66.0	0	0	---	0.00	29.916 
06:40	71.3	71.3	71.3	84	66.2	0	0	---	0.00	29.919 
06:45	71.3	71.3	71.3	84	66.2	0	0	---	0.00	29.920 
06:50	71.5	71.5	71.5	84	66.4	0	0	---	0.00	29.921 
06:55	71.5	71.5	71.5	84	66.4	0	0	---	0.00	29.917 
07:00	71.8	71.8	71.8	83	66.3	0	0	---	0.00	29.917 
07:05	72.0	72.0	72.0	83	66.5	0	1	270	0.00	29.919 
07:10	72.1	72.1	72.1	82	66.3	0	1	270	0.00	29.920 
07:15	72.3	72.3	72.3	81	66.1	0	1	270	0.00	29.920 
07:20	72.5	72.5	72.5	81	66.3	0	2	270	0.00	29.923 
07:25	72.8	72.8	72.8	80	66.3	0	2	270	0.00	29.923 
07:30	72.8	72.8	72.8	79	65.9	0	3	270	0.00	29.922 
07:35	73.2	73.2	73.2	79	66.3	0	1	270	0.00	29.923 
07:40	73.3	73.3	73.3	78	66.0	0	1	270	0.00	29.923 
07:45	73.5	73.5	73.5	77	65.8	0	2	270	0.00	29.922 
07:50	73.7	73.7	73.7	77	66.0	0	1	270	0.00	29.922 
07:55	73.9	73.9	73.9	77	66.2	0	1	270	0.00	29.921 
08:00	74.2	74.2	74.2	76	66.1	0	2	338	0.00	29.922 
08:05	74.2	74.2	74.2	75	65.8	0	1	338	0.00	29.925 
08:10	74.4	74.4	74.4	76	66.3	0	1	338	0.00	29.927 
08:15	74.6	74.6	74.6	75	66.1	0	2	338	0.00	29.927 
08:20	74.9	74.9	74.9	75	66.4	0	1	338	0.00	29.926 
08:25	75.1	75.1	76.5	73	65.8	0	1	338	0.00	29.923 
08:30	75.4	75.4	76.8	73	66.1	0	2	338	0.00	29.922 
08:35	75.8	75.8	77.3	72	66.1	0	1	338	0.00	29.925 
08:40	76.0	76.0	77.7	70	65.5	0	1	338	0.00	29.925 
08:45	76.3	76.3	78.0	70	65.8	0	1	338	0.00	29.925 
08:50	76.5	76.5	78.3	68	65.1	0	1	338	0.00	29.924 
08:55	76.8	76.8	78.6	69	65.8	0	2	338	0.00	29.923 
09:00	77.4	77.4	79.2	69	66.4	0	1	338	0.00	29.924 
09:05	77.9	77.9	79.8	66	65.6	1	3	315	0.00	29.926 
09:10	78.3	78.3	80.1	62	64.2	0	1	315	0.00	29.927 
09:15	78.6	78.6	80.4	63	64.9	1	2	315	0.00	29.927 
09:20	78.8	78.8	80.6	62	64.7	1	2	315	0.00	29.926 
09:25	79.2	79.2	81.1	62	65.0	1	2	292	0.00	29.926 
09:30	79.9	79.9	81.6	59	64.3	0	1	292	0.00	29.925 
09:35	80.7	80.7	82.4	58	64.5	0	1	292	0.00	29.927 
09:40	80.9	80.9	82.5	57	64.2	0	2	292	0.00	29.927 
09:45	80.9	80.9	82.1	54	62.7	1	2	292	0.00	29.929 
09:50	81.2	81.2	82.5	54	62.9	0	2	292	0.00	29.931 
09:55	81.2	81.2	82.2	52	61.9	1	3	292	0.00	29.928 
10:00	81.6	81.6	83.1	55	63.8	1	2	292	0.00	29.928 
10:05	82.2	82.2	83.0	50	61.7	1	2	292	0.00	29.929 
10:10	82.4	82.4	82.9	48	60.7	1	3	292	0.00	29.927 
10:15	82.6	82.6	83.4	50	62.0	1	2	270	0.00	29.927 
10:20	83.0	83.0	83.5	48	61.3	1	3	270	0.00	29.928 
10:25	83.4	83.4	83.8	47	61.0	0	2	270	0.00	29.928 
10:30	83.6	83.6	84.2	48	61.8	1	3	270	0.00	29.925 
10:35	83.8	83.8	84.5	48	62.0	1	2	270	0.00	29.924 
10:40	83.8	83.8	84.3	47	61.4	1	3	315	0.00	29.923 
10:45	83.8	83.8	84.5	48	62.0	1	3	292	0.00	29.923 
10:50	83.8	83.8	84.3	47	61.4	1	2	292	0.00	29.923 
10:55	84.1	84.1	84.8	48	62.3	1	3	292	0.00	29.923 
11:00	84.7	84.7	85.2	46	61.6	1	3	248	0.00	29.923 
11:05	84.7	84.7	85.4	47	62.2	2	4	315	0.00	29.924 
11:10	84.5	84.5	84.9	46	61.4	1	2	315	0.00	29.924 
11:15	84.9	84.9	85.2	45	61.2	1	4	270	0.00	29.923 
11:20	85.1	85.1	85.4	45	61.3	2	5	248	0.00	29.923 
11:25	85.7	85.7	86.0	44	61.2	1	3	248	0.00	29.922 
11:30	85.9	85.9	86.0	43	60.8	1	3	248	0.00	29.920 
11:35	86.1	86.1	85.6	40	58.9	1	4	0	0.00	29.914 
11:40	85.9	85.9	85.7	42	60.1	1	3	338	0.00	29.913 
11:45	85.9	85.9	85.5	41	59.4	1	4	315	0.00	29.912 
11:50	86.1	86.1	85.8	41	59.6	1	4	315	0.00	29.912 
11:55	86.3	86.3	85.8	40	59.1	2	3	248	0.00	29.912 
12:00	86.7	86.7	86.0	39	58.7	0	2	315	0.00	29.911 
12:05	87.2	87.2	86.2	37	57.7	1	4	315	0.00	29.911 
12:10	87.0	87.0	85.6	35	56.0	2	5	292	0.00	29.912 
12:15	86.7	86.7	85.6	37	57.3	1	2	292	0.00	29.910 
12:20	86.7	86.7	84.7	32	53.3	1	4	292	0.00	29.911 
12:25	86.5	86.5	84.7	33	53.9	1	4	270	0.00	29.910 
12:30	86.7	86.7	85.2	35	55.7	1	4	270	0.00	29.908 
12:35	87.0	87.0	85.8	36	56.8	2	4	270	0.00	29.908 
12:40	87.0	87.0	85.6	35	56.0	1	2	270	0.00	29.908 
12:45	87.4	87.4	85.6	33	54.7	1	3	270	0.00	29.907 
12:50	87.6	87.6	86.2	35	56.5	1	3	315	0.00	29.907 
12:55	87.2	87.2	85.8	35	56.2	1	3	315	0.00	29.908 
13:00	87.2	87.2	85.4	33	54.6	1	3	315	0.00	29.907 
13:05	87.4	87.4	86.0	35	56.3	1	2	315	0.00	29.908 
13:10	87.4	87.4	85.8	34	55.5	1	4	315	0.00	29.906 
13:15	87.6	87.6	86.4	36	57.3	1	5	270	0.00	29.906 
13:20	87.6	87.6	86.0	34	55.7	1	4	270	0.00	29.905 
13:25	87.6	87.6	86.0	34	55.7	1	3	338	0.00	29.903 
13:30	87.2	87.2	85.4	33	54.6	2	4	315	0.00	29.906 
13:35	86.7	86.7	85.2	35	55.7	1	3	315	0.00	29.901 
13:40	87.2	87.2	85.4	33	54.6	1	5	315	0.00	29.902 
13:45	86.5	86.5	84.8	34	54.8	3	5	315	0.00	29.898 
13:50	86.7	86.7	84.9	33	54.1	1	4	315	0.00	29.897 
13:55	87.2	87.2	85.6	34	55.4	2	4	270	0.00	29.895 
14:00	87.4	87.4	85.4	32	53.9	1	3	270	0.00	29.894 
14:05	87.8	87.8	86.1	33	55.1	1	2	292	0.00	29.892 
14:10	87.6	87.6	85.7	32	54.1	1	3	292	0.00	29.891 
14:15	87.8	87.8	86.5	35	56.7	1	3	292	0.00	29.890 
14:20	87.6	87.6	86.2	35	56.5	1	4	292	0.00	29.887 
14:25	87.6	87.6	85.5	31	53.2	2	4	248	0.00	29.888 
14:30	87.6	87.6	85.7	32	54.1	2	4	270	0.00	29.886 
14:35	87.4	87.4	85.4	32	53.9	1	5	270	0.00	29.884 
14:40	87.4	87.4	85.6	33	54.7	1	3	315	0.00	29.883 
14:45	87.2	87.2	85.6	34	55.4	1	4	315	0.00	29.879 
14:50	87.0	87.0	85.0	32	53.5	1	4	315	0.00	29.878 
14:55	87.2	87.2	85.1	31	52.8	3	5	270	0.00	29.878 
15:00	87.0	87.0	84.9	31	52.7	2	5	338	0.00	29.878 
15:05	86.7	86.7	84.7	32	53.3	1	4	270	0.00	29.877 
15:10	86.5	86.5	84.5	32	53.1	1	4	315	0.00	29.874 
15:15	86.5	86.5	84.7	33	53.9	1	3	315	0.00	29.872 
15:20	86.5	86.5	84.7	33	53.9	1	4	315	0.00	29.872 
15:25	86.5	86.5	84.5	32	53.1	1	4	292	0.00	29.874 
15:30	86.3	86.3	84.3	32	52.9	1	4	315	0.00	29.874 
15:35	86.3	86.3	84.6	34	54.6	1	4	292	0.00	29.874 
15:40	86.1	86.1	84.8	36	56.0	1	3	292	0.00	29.876 
15:45	85.5	85.5	84.0	35	54.7	1	3	292	0.00	29.875 
15:50	85.5	85.5	83.8	34	53.9	1	4	292	0.00	29.876 
15:55	85.7	85.7	83.9	33	53.2	1	4	292	0.00	29.876 
16:00	85.9	85.9	84.2	34	54.2	1	4	292	0.00	29.876 
16:05	85.9	85.9	84.7	37	56.6	1	2	315	0.00	29.876 
16:10	85.7	85.7	84.5	37	56.4	0	1	315	0.00	29.876 
16:15	85.3	85.3	84.1	37	56.0	1	4	315	0.00	29.877 
16:20	84.7	84.7	83.5	37	55.5	1	3	315	0.00	29.878 
16:25	84.5	84.5	83.3	37	55.3	0	2	315	0.00	29.879 
16:30	84.3	84.3	83.3	38	55.9	1	3	315	0.00	29.878 
16:35	84.1	84.1	83.1	38	55.7	1	4	315	0.00	29.879 
16:40	84.0	84.0	83.3	40	57.0	1	3	292	0.00	29.876 
16:45	83.8	83.8	83.2	41	57.6	1	3	315	0.00	29.876 
16:50	83.6	83.6	82.8	39	56.0	1	3	270	0.00	29.874 
16:55	83.6	83.6	83.4	43	58.7	0	2	292	0.00	29.877 
17:00	83.4	83.4	82.9	41	57.2	0	2	292	0.00	29.876 
17:05	83.4	83.4	83.2	43	58.5	0	2	292	0.00	29.873 
17:10	82.8	82.8	82.6	43	58.0	1	3	315	0.00	29.871 
17:15	82.4	82.4	82.3	44	58.3	0	2	292	0.00	29.869 
17:20	82.2	82.2	82.1	44	58.1	0	2	315	0.00	29.869 
17:25	82.0	82.0	81.8	43	57.3	0	2	315	0.00	29.868 
17:30	82.0	82.0	81.9	44	57.9	0	2	292	0.00	29.870 
17:35	82.0	82.0	81.8	43	57.3	1	3	315	0.00	29.873 
17:40	82.0	82.0	81.8	43	57.3	1	2	315	0.00	29.873 
17:45	81.6	81.6	81.6	44	57.5	1	4	45	0.00	29.871 
17:50	81.2	81.2	81.3	45	57.8	0	2	45	0.00	29.872 
17:55	81.1	81.1	81.1	44	57.1	0	2	45	0.00	29.873 
18:00	80.9	80.9	81.1	45	57.5	1	4	45	0.00	29.874 
18:05	80.9	80.9	81.0	44	56.9	1	2	292	0.00	29.871 
18:10	80.7	80.7	80.8	44	56.7	1	6	292	0.00	29.869 
18:15	80.5	80.5	80.8	46	57.8	0	1	270	0.00	29.872 
18:20	80.1	80.1	80.4	45	56.8	1	3	292	0.00	29.873 
18:25	79.9	79.9	80.3	45	56.6	1	2	270	0.00	29.875 
18:30	79.6	79.6	80.0	45	56.4	1	4	315	0.00	29.877 
18:35	79.2	79.2	79.8	45	56.0	0	2	292	0.00	29.877 
18:40	78.8	78.8	79.5	45	55.6	0	2	292	0.00	29.881 
18:45	78.5	78.5	79.3	45	55.4	0	2	292	0.00	29.883 
18:50	78.3	78.3	79.2	45	55.2	0	2	292	0.00	29.883 
18:55	78.1	78.1	79.1	46	55.6	0	2	292	0.00	29.883 
19:00	77.7	77.7	78.9	47	55.8	0	1	292	0.00	29.884 
19:05	77.4	77.4	78.7	47	55.6	0	1	292	0.00	29.884 
19:10	76.8	76.8	78.4	47	55.0	0	1	292	0.00	29.885 
19:15	76.5	76.5	78.3	48	55.3	0	1	292	0.00	29.886 
19:20	76.1	76.1	78.1	49	55.5	0	1	292	0.00	29.887 
19:25	75.8	75.8	78.0	51	56.4	0	3	270	0.00	29.890 
19:30	75.6	75.6	77.9	53	57.2	0	1	270	0.00	29.891 
19:35	75.3	75.3	77.7	54	57.5	0	1	270	0.00	29.895 
19:40	74.9	74.9	74.9	55	57.6	0	1	270	0.00	29.898 
19:45	74.6	74.6	74.6	57	58.3	0	1	270	0.00	29.900 
19:50	74.2	74.2	74.2	58	58.5	0	1	270	0.00	29.901 
19:55	73.7	73.7	73.7	59	58.5	0	1	270	0.00	29.901 
20:00	73.3	73.3	73.3	59	58.1	0	1	270	0.00	29.901 
20:05	73.2	73.2	73.2	59	58.0	0	1	270	0.00	29.900 
20:10	72.8	72.8	72.8	59	57.6	0	1	270	0.00	29.900 
20:15	72.7	72.7	72.7	60	58.0	0	1	270	0.00	29.901 
20:20	72.3	72.3	72.3	60	57.6	0	2	270	0.00	29.903 
20:25	72.0	72.0	72.0	61	57.8	0	1	270	0.00	29.906 
20:30	71.8	71.8	71.8	61	57.6	0	1	270	0.00	29.912 
20:35	71.6	71.6	71.6	62	57.9	0	1	270	0.00	29.915 
20:40	71.3	71.3	71.3	62	57.6	0	0	---	0.00	29.917 
20:45	71.1	71.1	71.1	62	57.4	0	2	270	0.00	29.917 
20:50	70.8	70.8	70.8	63	57.6	0	2	270	0.00	29.918 
20:55	70.4	70.4	70.4	64	57.6	0	1	270	0.00	29.920 
21:00	70.1	70.1	70.1	65	57.8	0	1	270	0.00	29.927 
21:05	69.8	69.8	69.8	66	57.9	0	2	270	0.00	29.926 
21:10	69.6	69.6	69.6	67	58.1	0	1	270	0.00	29.928 
21:15	69.3	69.3	69.3	67	57.9	0	2	270	0.00	29.931 
21:20	68.9	68.9	68.9	67	57.5	0	1	270	0.00	29.931 
21:25	68.8	68.8	68.8	68	57.8	0	1	270	0.00	29.932 
21:30	68.4	68.4	68.4	68	57.4	0	3	270	0.00	29.931 
21:35	68.3	68.3	68.3	69	57.7	0	1	270	0.00	29.933 
21:40	67.9	67.9	67.9	69	57.3	0	2	270	0.00	29.933 
21:45	67.8	67.8	67.8	69	57.2	0	2	270	0.00	29.934 
21:50	67.4	67.4	67.4	69	56.9	0	3	270	0.00	29.936 
21:55	67.3	67.3	67.3	69	56.8	0	2	270	0.00	29.936 
22:00	66.9	66.9	66.9	70	56.8	0	1	270	0.00	29.939 
22:05	66.8	66.8	66.8	70	56.7	0	4	315	0.00	29.936 
22:10	66.4	66.4	66.4	70	56.3	0	2	270	0.00	29.937 
22:15	66.3	66.3	66.3	70	56.2	0	2	270	0.00	29.935 
22:20	66.1	66.1	66.1	70	56.0	0	2	270	0.00	29.935 
22:25	65.8	65.8	65.8	71	56.1	0	1	270	0.00	29.935 
22:30	65.6	65.6	65.6	71	55.9	0	1	270	0.00	29.933 
22:35	65.3	65.3	65.3	71	55.6	0	1	270	0.00	29.933 
22:40	65.2	65.2	65.2	71	55.6	0	1	270	0.00	29.933 
22:45	65.0	65.0	65.0	72	55.7	0	1	270	0.00	29.935 
22:50	64.7	64.7	64.7	72	55.5	0	1	270	0.00	29.936 
22:55	64.5	64.5	64.5	72	55.3	0	1	270	0.00	29.937 
23:00	64.3	64.3	64.3	73	55.5	0	1	270	0.00	29.938 
23:05	64.2	64.2	64.2	73	55.4	0	1	270	0.00	29.938 
23:10	64.0	64.0	64.0	73	55.2	0	1	270	0.00	29.934 
23:15	64.0	64.0	64.0	73	55.2	0	1	270	0.00	29.940 
23:20	63.9	63.9	63.9	73	55.1	0	1	270	0.00	29.940 
23:25	63.5	63.5	63.5	74	55.1	0	1	270	0.00	29.939 
23:30	63.5	63.5	63.5	74	55.1	0	0	---	0.00	29.943 
23:35	63.4	63.4	63.4	74	55.0	0	0	---	0.00	29.941 
23:40	63.2	63.2	63.2	74	54.8	0	1	270	0.00	29.941 
23:45	63.1	63.1	63.1	75	55.0	0	1	270	0.00	29.940 
23:50	62.9	62.9	62.9	75	54.8	0	1	270	0.00	29.941 
23:55	62.7	62.7	62.7	75	54.7	0	1	270	0.00	29.943 

CoCoRaHS
IN-AL-39
A2 Web Hosting
Creative Commons License
GoDaddy
Look for:

loaded 2017-12-13 16:04:34 • last modified 2010-11-18 10:43:29
Privacy PolicyDisclaimer
• wx.awcolley.com is powered by PmWiki v.2002016 •
• all content (unless otherwise noted) © 2017 A W Colley